STAZIONE METEO DI BARCELLONA P.G. CENTRO
Dati campionati ogni minuto da Consolle Davis Vantage Pro 2
ed inviati alla rete mediante server Anemos WDS5 wview



Barcellona P.G. Centro more information Barcellona P.G. Centro


Golfo di Patti more information Golfo di Patti


Thunder radar more information blitzortung!


Rain radar  rain snow radar


altri nostri siti meteo:

Rete NOAA MADIS

Italia Meteo Network

Pomeziameteo

Varazze Meteo



Nessuna attenzione particolare richiesta.    Non ci sono allerte meteo

Select another period ( hide this area )

Unità Periodo Custom range Directly to
Metrico Inglese Entrambi
Quotidiano Settimanale mensile Annuale
use both date-selectors for a custom range
previous Day
With this date

WeatherUnderground graphs for this period ( click here )


Quotidiano Riepilogo per Domenica 17 Febbraio 2019
Tempo Temp. ( °C ) Dew pt. ( °C ) Vento ( km/h ) da Raffica ( km/h ) Pressione ( hPa ) Humid.( % ) Rainrate ( cm ) solare ( W/m2 )
Max10,2 5,7 9,7 SE ( 147/315 ) 14,5 1030,4 79 - 183
Media8,0 4,1 2,9 SE #39/108 9,6 1029,7 77 - 72 #26/108
Min7,3 3,5 -   0,0 1029,0 73 -  
Quotidiano Tabular details for Domenica 17 Febbraio 2019
Tempo Temp. ( °C ) Dew pt. ( °C ) Vento ( km/h ) da Raffica ( km/h ) Pressione ( hPa ) Humid.( % ) Rainrate ( cm ) solare ( W/m2 )
00:00 7,7 3,5 1,6 SE 11,3 1030,0 75 - -
00:05 7,7 3,5 3,2 SE 11,3 1030,0 75 - -
00:10 7,7 3,5 8,0 SE 11,3 1029,7 75 - -
00:15 7,7 3,5   calma 9,7 1029,7 75 - -
00:20 7,7 3,7 3,2 SE 12,9 1030,0 76 - -
00:25 7,7 3,7 6,4 S 11,3 1029,7 76 - -
00:30 7,7 3,7 1,6 S 12,9 1029,7 76 - -
00:35 7,7 3,7 4,8 S 8,0 1030,0 76 - -
00:40 7,6 3,6 3,2 SE 11,3 1030,0 76 - -
00:45 7,6 3,8 1,6 SE 11,3 1030,0 77 - -
00:50 7,6 3,8 8,0 SE 11,3 1030,0 77 - -
00:55 7,6 3,8   calma 8,0 1030,0 77 - -
01:00 7,6 3,8 1,6 S 6,4 1030,0 77 - -
01:05 7,7 3,9 1,6 SE 11,3 1030,0 77 - -
01:10 7,7 3,9   calma 9,7 1030,0 77 - -
01:15 7,7 3,9   calma 6,4 1030,0 77 - -
01:20 7,8 3,9 4,8 SE 8,0 1030,0 77 - -
01:25 7,8 4,0   calma 6,4 1030,0 77 - -
01:30 7,8 4,0 1,6 SE 9,7 1030,0 77 - -
01:35 7,8 4,0 4,8 SE 8,0 1030,0 77 - -
01:40 7,8 4,0   calma 8,0 1030,0 77 - -
01:45 7,9 4,1 1,6 SE 8,0 1029,7 77 - -
01:50 7,9 4,1   calma 11,3 1029,7 77 - -
01:55 7,9 4,1 3,2 SE 8,0 1030,0 77 - -
02:00 7,9 4,1 1,6 SE 9,7 1029,7 77 - -
02:05 7,9 4,1   calma 8,0 1029,7 77 - -
02:10 8,0 4,2 3,2 SE 11,3 1029,7 77 - -
02:15 8,1 4,2 1,6 S 8,0 1029,7 77 - -
02:20 8,1 4,1 3,2 SE 9,7 1029,7 76 - -
02:25 8,2 4,2 3,2 SE 14,5 1029,7 76 - -
02:30 8,2 4,2 1,6 SE 8,0 1029,7 76 - -
02:35 8,3 4,1 1,6 SE 8,0 1029,7 75 - -
02:40 8,3 4,1 3,2 SE 8,0 1029,7 75 - -
02:45 8,4 4,0 1,6 SE 6,4 1029,7 74 - -
02:50 8,4 4,1 1,6 SE 8,0 1029,7 74 - -
02:55 8,4 4,1 1,6 SE 9,7 1029,7 74 - -
03:00 8,4 4,1   calma 8,0 1029,3 74 - -
03:05 8,4 4,1 6,4 SE 8,0 1029,3 74 - -
03:10 8,4 4,1 3,2 SE 8,0 1029,3 74 - -
03:15 8,4 4,1   calma 6,4 1029,3 74 - -
03:20 8,4 4,1 1,6 SE 6,4 1029,3 74 - -
03:25 8,4 4,1 4,8 SE 6,4 1029,3 74 - -
03:30 8,4 4,1 4,8 SE 8,0 1029,3 74 - -
03:35 8,4 3,8 1,6 SE 11,3 1029,0 73 - -
03:40 8,4 3,8   calma 6,4 1029,0 73 - -
03:45 8,4 3,8   calma 8,0 1029,0 73 - -
03:50 8,4 4,0   calma 9,7 1029,0 74 - -
03:55 8,3 3,9   calma 11,3 1029,0 74 - -
04:00 8,3 3,9   calma 11,3 1029,0 74 - -
04:05 8,2 3,8 6,4 SE 11,3 1029,0 74 - -
04:10 8,2 3,8 3,2 SE 11,3 1029,0 74 - -
04:15 8,1 3,9 1,6 SE 12,9 1029,0 75 - -
04:20 8,0 3,8 8,0 SE 11,3 1029,0 75 - -
04:25 7,9 3,8 3,2 Oriente 12,9 1029,0 75 - -
04:30 7,9 3,7 8,0 SE 12,9 1029,3 75 - -
04:35 7,8 3,8 4,8 SE 8,0 1029,3 76 - -
04:40 7,8 3,8 9,7 SE 11,3 1029,0 76 - -
04:45 7,7 3,7 3,2 SE 12,9 1029,3 76 - -
04:50 7,7 3,7 6,4 SE 8,0 1029,3 76 - -
04:55 7,7 3,7   calma 11,3 1029,3 76 - -
05:00 7,7 3,7 8,0 Oriente 12,9 1029,3 76 - -
05:05 7,6 3,6 8,0 Oriente 8,0 1029,3 76 - -
05:10 7,6 3,8 3,2 SE 11,3 1029,3 77 - -
05:15 7,6 3,8 1,6 SE 11,3 1029,3 77 - -
05:20 7,6 3,8 3,2 SE 8,0 1029,3 77 - -
05:25 7,4 3,7 6,4 SE 11,3 1029,3 77 - -
05:30 7,4 3,8 6,4 SE 11,3 1029,3 78 - -
05:35 7,3 3,7 6,4 SE 11,3 1029,3 78 - -
05:40 7,3 3,7 4,8 SE 14,5 1029,3 78 - -
05:45 7,3 3,7 3,2 SE 11,3 1029,3 78 - -
05:50 7,3 3,8 6,4 SE 12,9 1029,3 79 - -
05:55 7,3 3,8 6,4 SE 12,9 1029,3 79 - -
06:00 7,3 3,8 4,8 Oriente 11,3 1029,3 79 - -
06:05 7,3 3,8 4,8 SE 12,9 1029,3 79 - -
06:10 7,3 3,8   calma 11,3 1029,3 79 - -
06:15 7,3 3,7 3,2 S 11,3 1029,3 78 - -
06:20 7,3 3,9 1,6 SE 11,3 1029,3 79 - -
06:25 7,3 3,7   calma 11,3 1029,3 78 - -
06:30 7,3 3,8 3,2 SE 6,4 1029,7 79 - -
06:35 7,3 3,8 4,8 SE 11,3 1029,7 79 - -
06:40 7,3 3,8 6,4 SE 12,9 1029,7 79 - -
06:45 7,3 3,8 6,4 SE 9,7 1029,7 79 - -
06:50 7,3 3,9 3,2 SE 12,9 1029,7 79 - 5
06:55 7,3 3,9 3,2 SE 14,5 1029,7 79 - 9
07:00 7,4 3,9 4,8 SE 9,7 1029,7 79 - 12
07:05 7,4 4,0 4,8 SE 8,0 1029,7 79 - 14
07:10 7,5 4,1   calma 12,9 1029,7 79 - 23
07:15 7,6 4,2   calma 11,3 1029,7 79 - 25
07:20 7,6 4,2 3,2 SE 6,4 1030,0 79 - 28
07:25 7,7 4,2 4,8 SE 11,3 1030,0 79 - 33
07:30 7,7 4,3 1,6 S 9,7 1030,0 79 - 51
07:35 7,8 4,3 4,8 SE 8,0 1030,0 79 - 53
07:40 7,9 4,4 4,8 SE 11,3 1030,0 79 - 54
07:45 8,1 4,6 1,6 SE 8,0 1030,0 79 - 54
07:50 8,2 4,6   calma 8,0 1030,0 78 - 56
07:55 8,3 4,7 3,2 SE 8,0 1030,0 78 - 51
08:00 8,5 4,7 3,2 S 11,3 1030,4 77 - 60
08:05 8,7 4,8 1,6 SE 9,7 1030,4 77 - 84
08:10 8,8 5,0 1,6 SE 11,3 1030,4 77 - 95
08:15 9,0 5,2   calma 4,8 1030,4 77 - 86
08:20 9,1 5,0   calma   1030,4 76 - 100
08:25 9,2 5,1   calma 8,0 1030,4 76 - 113
08:30 9,4 5,3 3,2 S 8,0 1030,4 76 - 111
08:35 9,6 5,5 1,6 SE 6,4 1030,4 76 - 139
08:40 9,8 5,6 3,2 S 9,7 1030,0 75 - 128
08:45 9,9 5,7   calma 6,4 1030,4 75 - 134
08:50 10,1 5,6   calma 3,2 1030,4 74 - 158
08:55 10,2 5,7   calma   1030,4 74 - 183
Quotidiano Riepilogo per Domenica 17 Febbraio 2019
Tempo Temp. ( °C ) Dew pt. ( °C ) Vento ( km/h ) da Raffica ( km/h ) Pressione ( hPa ) Humid.( % ) Rainrate ( cm ) solare ( W/m2 )
Max10,2 5,7 9,7 SE ( 147/315 ) 14,5 1030,4 79 - 183
Media8,0 4,1 2,9 SE #39/108 9,6 1029,7 77 - 72 #26/108
Min7,3 3,5 -   0,0 1029,0 73 -  
Quotidiano Tabular details for Domenica 17 Febbraio 2019
Tempo Temp. ( °C ) Dew pt. ( °C ) Vento ( km/h ) da Raffica ( km/h ) Pressione ( hPa ) Humid.( % ) Rainrate ( cm ) solare ( W/m2 )
00:00 7,7 3,5 1,6 SE 11,3 1030,0 75 - -
00:05 7,7 3,5 3,2 SE 11,3 1030,0 75 - -
00:10 7,7 3,5 8,0 SE 11,3 1029,7 75 - -
00:15 7,7 3,5   calma 9,7 1029,7 75 - -
00:20 7,7 3,7 3,2 SE 12,9 1030,0 76 - -
00:25 7,7 3,7 6,4 S 11,3 1029,7 76 - -
00:30 7,7 3,7 1,6 S 12,9 1029,7 76 - -
00:35 7,7 3,7 4,8 S 8,0 1030,0 76 - -
00:40 7,6 3,6 3,2 SE 11,3 1030,0 76 - -
00:45 7,6 3,8 1,6 SE 11,3 1030,0 77 - -
00:50 7,6 3,8 8,0 SE 11,3 1030,0 77 - -
00:55 7,6 3,8   calma 8,0 1030,0 77 - -
01:00 7,6 3,8 1,6 S 6,4 1030,0 77 - -
01:05 7,7 3,9 1,6 SE 11,3 1030,0 77 - -
01:10 7,7 3,9   calma 9,7 1030,0 77 - -
01:15 7,7 3,9   calma 6,4 1030,0 77 - -
01:20 7,8 3,9 4,8 SE 8,0 1030,0 77 - -
01:25 7,8 4,0   calma 6,4 1030,0 77 - -
01:30 7,8 4,0 1,6 SE 9,7 1030,0 77 - -
01:35 7,8 4,0 4,8 SE 8,0 1030,0 77 - -
01:40 7,8 4,0   calma 8,0 1030,0 77 - -
01:45 7,9 4,1 1,6 SE 8,0 1029,7 77 - -
01:50 7,9 4,1   calma 11,3 1029,7 77 - -
01:55 7,9 4,1 3,2 SE 8,0 1030,0 77 - -
02:00 7,9 4,1 1,6 SE 9,7 1029,7 77 - -
02:05 7,9 4,1   calma 8,0 1029,7 77 - -
02:10 8,0 4,2 3,2 SE 11,3 1029,7 77 - -
02:15 8,1 4,2 1,6 S 8,0 1029,7 77 - -
02:20 8,1 4,1 3,2 SE 9,7 1029,7 76 - -
02:25 8,2 4,2 3,2 SE 14,5 1029,7 76 - -
02:30 8,2 4,2 1,6 SE 8,0 1029,7 76 - -
02:35 8,3 4,1 1,6 SE 8,0 1029,7 75 - -
02:40 8,3 4,1 3,2 SE 8,0 1029,7 75 - -
02:45 8,4 4,0 1,6 SE 6,4 1029,7 74 - -
02:50 8,4 4,1 1,6 SE 8,0 1029,7 74 - -
02:55 8,4 4,1 1,6 SE 9,7 1029,7 74 - -
03:00 8,4 4,1   calma 8,0 1029,3 74 - -
03:05 8,4 4,1 6,4 SE 8,0 1029,3 74 - -
03:10 8,4 4,1 3,2 SE 8,0 1029,3 74 - -
03:15 8,4 4,1   calma 6,4 1029,3 74 - -
03:20 8,4 4,1 1,6 SE 6,4 1029,3 74 - -
03:25 8,4 4,1 4,8 SE 6,4 1029,3 74 - -
03:30 8,4 4,1 4,8 SE 8,0 1029,3 74 - -
03:35 8,4 3,8 1,6 SE 11,3 1029,0 73 - -
03:40 8,4 3,8   calma 6,4 1029,0 73 - -
03:45 8,4 3,8   calma 8,0 1029,0 73 - -
03:50 8,4 4,0   calma 9,7 1029,0 74 - -
03:55 8,3 3,9   calma 11,3 1029,0 74 - -
04:00 8,3 3,9   calma 11,3 1029,0 74 - -
04:05 8,2 3,8 6,4 SE 11,3 1029,0 74 - -
04:10 8,2 3,8 3,2 SE 11,3 1029,0 74 - -
04:15 8,1 3,9 1,6 SE 12,9 1029,0 75 - -
04:20 8,0 3,8 8,0 SE 11,3 1029,0 75 - -
04:25 7,9 3,8 3,2 Oriente 12,9 1029,0 75 - -
04:30 7,9 3,7 8,0 SE 12,9 1029,3 75 - -
04:35 7,8 3,8 4,8 SE 8,0 1029,3 76 - -
04:40 7,8 3,8 9,7 SE 11,3 1029,0 76 - -
04:45 7,7 3,7 3,2 SE 12,9 1029,3 76 - -
04:50 7,7 3,7 6,4 SE 8,0 1029,3 76 - -
04:55 7,7 3,7   calma 11,3 1029,3 76 - -
05:00 7,7 3,7 8,0 Oriente 12,9 1029,3 76 - -
05:05 7,6 3,6 8,0 Oriente 8,0 1029,3 76 - -
05:10 7,6 3,8 3,2 SE 11,3 1029,3 77 - -
05:15 7,6 3,8 1,6 SE 11,3 1029,3 77 - -
05:20 7,6 3,8 3,2 SE 8,0 1029,3 77 - -
05:25 7,4 3,7 6,4 SE 11,3 1029,3 77 - -
05:30 7,4 3,8 6,4 SE 11,3 1029,3 78 - -
05:35 7,3 3,7 6,4 SE 11,3 1029,3 78 - -
05:40 7,3 3,7 4,8 SE 14,5 1029,3 78 - -
05:45 7,3 3,7 3,2 SE 11,3 1029,3 78 - -
05:50 7,3 3,8 6,4 SE 12,9 1029,3 79 - -
05:55 7,3 3,8 6,4 SE 12,9 1029,3 79 - -
06:00 7,3 3,8 4,8 Oriente 11,3 1029,3 79 - -
06:05 7,3 3,8 4,8 SE 12,9 1029,3 79 - -
06:10 7,3 3,8   calma 11,3 1029,3 79 - -
06:15 7,3 3,7 3,2 S 11,3 1029,3 78 - -
06:20 7,3 3,9 1,6 SE 11,3 1029,3 79 - -
06:25 7,3 3,7   calma 11,3 1029,3 78 - -
06:30 7,3 3,8 3,2 SE 6,4 1029,7 79 - -
06:35 7,3 3,8 4,8 SE 11,3 1029,7 79 - -
06:40 7,3 3,8 6,4 SE 12,9 1029,7 79 - -
06:45 7,3 3,8 6,4 SE 9,7 1029,7 79 - -
06:50 7,3 3,9 3,2 SE 12,9 1029,7 79 - 5
06:55 7,3 3,9 3,2 SE 14,5 1029,7 79 - 9
07:00 7,4 3,9 4,8 SE 9,7 1029,7 79 - 12
07:05 7,4 4,0 4,8 SE 8,0 1029,7 79 - 14
07:10 7,5 4,1   calma 12,9 1029,7 79 - 23
07:15 7,6 4,2   calma 11,3 1029,7 79 - 25
07:20 7,6 4,2 3,2 SE 6,4 1030,0 79 - 28
07:25 7,7 4,2 4,8 SE 11,3 1030,0 79 - 33
07:30 7,7 4,3 1,6 S 9,7 1030,0 79 - 51
07:35 7,8 4,3 4,8 SE 8,0 1030,0 79 - 53
07:40 7,9 4,4 4,8 SE 11,3 1030,0 79 - 54
07:45 8,1 4,6 1,6 SE 8,0 1030,0 79 - 54
07:50 8,2 4,6   calma 8,0 1030,0 78 - 56
07:55 8,3 4,7 3,2 SE 8,0 1030,0 78 - 51
08:00 8,5 4,7 3,2 S 11,3 1030,4 77 - 60
08:05 8,7 4,8 1,6 SE 9,7 1030,4 77 - 84
08:10 8,8 5,0 1,6 SE 11,3 1030,4 77 - 95
08:15 9,0 5,2   calma 4,8 1030,4 77 - 86
08:20 9,1 5,0   calma   1030,4 76 - 100
08:25 9,2 5,1   calma 8,0 1030,4 76 - 113
08:30 9,4 5,3 3,2 S 8,0 1030,4 76 - 111
08:35 9,6 5,5 1,6 SE 6,4 1030,4 76 - 139
08:40 9,8 5,6 3,2 S 9,7 1030,0 75 - 128
08:45 9,9 5,7   calma 6,4 1030,4 75 - 134
08:50 10,1 5,6   calma 3,2 1030,4 74 - 158
08:55 10,2 5,7   calma   1030,4 74 - 183

Download your copy of this data-set  here

Our weather-data as stored at Weather Underground. Script sviluppato da Jim McMurry. Adattato per il modello da Leuven-Template.eu

Potete trovare le nostre info meteo anche a:

European Weather Network

Weather Underground

AWEKAS

Citizen Weather Observer Program (CWOP)

HAMweather, WeatherForYou, PWS Weather

Strumentazione usata:

Stazione meteo
Davis VP2

Programma gestore dati meteo
WVIEW

Server per i dati meteo
WDS5 Ecoblack

Davis VP2

WVIEW

WDS5 Ecoblack